Regional Weather Roundup
Issued by NWS

Home | Current Version | Previous Version | Graphics & Text | Print | Product List | Glossary On
Versions: 1 2 3 4 5 6 7 8 9 10 11 12 13 14 15 16 17 18 19 20 21 22 23 24 25 26 27
000
ASUS45 KSLC 230210
RWRUT

UTAH REGIONAL WEATHER ROUNDUP
NATIONAL WEATHER SERVICE SALT LAKE CITY UT
800 PM MDT WED OCT 22 2014

UTZ001>011-023>025-230300-

NORTHERN UTAH

CITY           SKY/WX    TMP DP  RH WIND       PRES   REMARKS
BRIGHAM CITY   PTCLDY    51  32  47 E3        30.18S
HILL AFB       PTCLDY    55  33  44 N5        30.19R
LOGAN          CLEAR     46  29  51 CALM      30.18R
OGDEN          PTCLDY    52  33  48 N3        30.17R
PROVO AIRPORT  PTCLDY    54  37  54 NW10      30.17R
SALT LAKE CITY MOCLDY    52  35  52 CALM      30.17R
VERNAL         CLEAR     49  38  65 NW6       30.17R
WENDOVER       CLEAR     52  28  40 NW8       30.17S
HEBER CITY     CLEAR     43  28  56 E6        30.20R
WEST JORDAN    CLEAR     48  37  66 SW5       30.19R

$$

UTZ012>022-026-027-230300-

SOUTHERN/CENTRAL UTAH

CITY           SKY/WX    TMP DP  RH WIND       PRES   REMARKS
BLANDING       CLEAR     57  29  34 N3        30.26R
BRYCE CANYON   CLEAR     50  22  33 NW10      30.28R
CEDAR CITY     CLEAR     54  32  43 SE8       30.18R
DELTA          CLEAR     54  26  34 NW3       30.17R
HANKSVILLE       N/A     59  32  36 N7        30.12R
MILFORD        CLEAR     51  30  44 N8        30.16R
MOAB/CYNLANDS  CLEAR     58  33  39 SW5       30.10R
PRICE          CLEAR     57  26  30 W6        30.18R
ST GEORGE      CLEAR     72  32  23 SW6       30.06R
KANAB            N/A     57  32  38 E7        30.18R

$$

REGIONAL REPORTS     COLORADO/ARIZONA

CITY           SKY/WX    TMP DP  RH WIND       PRES   REMARKS
CRAIG, CO      PTCLDY    41  35  79 CALM      30.22R
GRAND JUNCTION CLEAR     51  37  58 NE8       30.14R
RIFLE          PTCLDY    50  42  74 SE7       30.20R
MONTROSE       PTCLDY    55  42  61 S5        30.21R
CORTEZ         CLEAR     49  36  61 CALM      30.21R
PAGE, AZ       CLEAR     67  37  33 S7        30.10R
GRAND CANYON   CLEAR     45  29  53 CALM      30.25R
KINGMAN        CLEAR     64  39  39 S9        30.08R
FLAGSTAFF      PTCLDY    49  34  56 CALM      30.28R

$$

REGIONAL REPORTS    NEVADA/IDAHO/WYOMING

CITY           SKY/WX    TMP DP  RH WIND       PRES   REMARKS
LAS VEGAS, NV  PTCLDY    79  27  14 SW3       29.97R
ELY            CLEAR     54  19  25 S8        30.18R
ELKO           PTCLDY    56  22  26 N5        30.10S
POCATELLO, ID  MOCLDY    51  25  36 SE5       30.15F
BURLEY         MOCLDY    46  31  55 CALM      30.10S
EVANSTON, WY   CLEAR     45  18  34 SW5       30.24R
ROCK SPRINGS   CLEAR     42  22  44 S7        30.23R
KEMMERER       CLEAR     39  18  41 W8        30.24R WCI  34

$$



USA.gov is the U.S. government's official web portal to all federal, state and local government web resources and services.